Regional Weather Roundup
Issued by NWS

Home | Current Version | Previous Version | Text Only | Print | Product List | Glossary Off
Versions: 1 2 3 4 5 6 7 8 9 10 11 12 13 14 15 16 17 18 19 20 21 22 23 24 25 26 27 28 29 30 31 32 33 34 35 36 37 38 39 40 41 42 43 44 45 46 47 48 49 50

363
ASUS43 KBIS 222110
RWRND

NORTH DAKOTA REGIONAL WEATHER ROUNDUP
NATIONAL WEATHER SERVICE BISMARCK ND
400 PM CDT WED MAR 22 2017

NOTE: "FAIR" INDICATES FEW OR NO CLOUDS BELOW 12,000 FEET WITH NO
SIGNIFICANT WEATHER AND/OR OBSTRUCTIONS TO VISIBILITY.


NDZ001>003-009>011-017-222200-
NORTHWEST NORTH DAKOTA

CITY           SKY/WX    TMP DP  RH WIND       PRES   REMARKS
WILLISTON      FAIR      48  31  51 SE8       29.80F
MINOT          CLOUDY    40  28  62 SE21G26   29.91F
MINOT AFB      CLOUDY    37  29  72 S17       29.90F
$$

NDZ018>021-031>035-040>046-222200-
SOUTHWEST NORTH DAKOTA

CITY           SKY/WX    TMP DP  RH WIND       PRES   REMARKS
BISMARCK       CLOUDY    47  30  51 S23G30    29.94F
DICKINSON      FAIR      53  33  46 S15       29.77F
GARRISON         N/A     40  30  67 S15       29.89F
HETTINGER ARPT SUNNY     56  36  47 S14       29.81F
$$

NDZ004>008-012>016-024-026-027-054-222200-
NORTHEAST NORTH DAKOTA

CITY           SKY/WX    TMP DP  RH WIND       PRES   REMARKS
GRAND FORKS    FLURRIES  30  14  51 S24G32    30.22F WCI  16
GRND FRKS AFB  FLURRIES  28  21  74 S23G30    30.19F WCI  14
DEVILS LAKE    CLOUDY    28  22  78 SE26G33   30.07F WCI  13
$$

NDZ022-023-025-028>030-036>039-047>053-222200-
SOUTHEAST NORTH DAKOTA

CITY           SKY/WX    TMP DP  RH WIND       PRES   REMARKS
FARGO          MIX PCPN  32  14  47 SE23G36   30.23F WCI  19
JAMESTOWN      CLOUDY    31  24  75 SE25G32   30.07S WCI  17
$$





USA.gov is the U.S. government's official web portal to all federal, state and local government web resources and services.